sat.trackr.live / text

‹ back to catalog

YAOGAN-31 03B

NORAD 47693 · 2021-014C

PAYLOAD ACTIVE UNKNOWN

§ Identity

Operator
Country
PRC
Launch date
2021-02-24
Launch site
JSC
Launch vehicle
Mass (kg)
RCS (m²)

External: N2YO · Heavens-Above · Gunter

§ Orbital elements

Epoch: 2026-09-15T21:59:13.111872Z

Period
107.03 min
Inclination
63.4036°
Eccentricity
0.0185073
Mean motion
13.45453966 rev/d
Perigee alt
950.8 km
Apogee alt
1,227.2 km
Semi-major
7,467.2 km
B*
1.7382e-4
RAAN
325.4551°
Arg perigee
1.3041°
Mean anomaly
358.8430°
Rev number
27,288

§ Raw data

YAOGAN-31 03B1 47693U 21014C   26258.91612398  .00000024  00000+0  17382-3 0  99982 47693  63.4036 325.4551 0185073   1.3041 358.8430 13.45453966272885

JSON: /api/v1/satellites/47693 · /tle

For live sub-satellite position, see the globe view (requires WebGL).

§ Visibility from observer

Set your observer location to see the next 7 days of passes ≥ 10°. The values pass through the URL so the page stays shareable.

No JS? Fill the form by hand. The geolocation button needs JavaScript.